Regional Weather Roundup
Issued by NWS Bismarck, ND

Current Version | Previous Version | Text Only | Print | Product List | Glossary On
Versions: 1 2 3 4 5 6 7 8 9 10 11 12 13 14 15 16 17 18 19 20 21 22 23 24 25 26 27 28 29 30 31 32 33 34 35 36 37 38 39 40 41 42 43 44 45 46 47 48 49 50
000
ASUS43 KBIS 040610
RWRBIS

NWR BROADCAST TEXT
NATIONAL WEATHER SERVICE BISMARCK ND
100 AM CDT TUE OCT 04 2022

NOTE: "FAIR" INDICATES FEW OR NO CLOUDS BELOW 12,000 FEET WITH NO
SIGNIFICANT WEATHER AND/OR OBSTRUCTIONS TO VISIBILITY.


CITY           SKY/WX    TMP DP  RH WIND       PRES   REMARKS
WILLISTON      MOCLDY    54  52  93 W7        30.12F FOG
MINOT          CLEAR     54  50  86 SW7       30.08S
MINOT AFB      CLEAR     50  49  95 W7        30.06S
BISMARCK       MOCLDY    56  52  86 NW6       30.12S
DICKINSON      CLEAR     48  46  93 SW3       30.13S
GARRISON         N/A     54  51  90 W6        30.11R
HETTINGER ARPT PTCLDY    43  42  97 W3        30.16S FOG
JAMESTOWN      NOT AVBL
CARRINGTON     FAIR      54  52  94 W9        30.08F
HAZEN          FAIR      48  48 100 CALM      30.13F FOG
MANDAN         PTCLDY    50  50 100 NW9       30.12F FOG
OAKES          CLOUDY    59  57  94 S10       30.09S
RUGBY          FAIR      50  50 100 CALM      30.05S
STANLEY        FAIR      50  50 100 SW5       30.11S
TIOGA          FOG       50  50 100 W5        30.13S VSB 1/2
WATFORD CITY   CLOUDY    55  55 100 SW3       30.13F
$$

CITY           SKY/WX    TMP DP  RH WIND       PRES   REMARKS
GRAND FORKS    MOCLDY    61  53  75 S6        30.04F
GRAND FORKS AF CLOUDY    60  53  77 S7        30.02F
DEVILS LAKE    PTCLDY    52  51  97 CALM      30.05S
FARGO          CLOUDY    63  49  60 SE6       30.07F
CANDO          FAIR      50  50 100 CALM      30.06F
CAVALIER       FAIR      54  54 100 CALM      30.04S
GRAFTON        FAIR      59  55  88 S7        30.04F
GWINNER        CLOUDY    59  59 100 SW5       30.09R
LANGDON        FAIR      52  52 100 NE7       30.06S
ROLLA          FAIR      48  48 100 N7        30.08S FOG
WALHALLA       FAIR      54  54 100 NW5       30.04F
$$

CITY           SKY/WX    TMP DP  RH WIND       PRES   REMARKS
ABERDEEN       MOCLDY    60  54  80 S7        30.10S
MOBRIDGE       CLOUDY    57  53  86 NE5       30.07S
BUFFALO          N/A     53  50  89 W5        30.15S
RAPID CITY     LGT RAIN  53  49  86 N8        30.18R
GLASGOW        CLEAR     54  51  90 CALM      30.13S
SIDNEY         CLOUDY    54  54 100 SW3       30.13F FOG
WOLF POINT     CLOUDY    56  54  93 W6        30.13S
GLENDIVE       CLOUDY    55  55 100 S3        30.16S
MILES CITY     PTCLDY    52  51  97 SW3       30.17F
BAKER          LGT RAIN  52  52 100 W5        30.17F
$$

CITY           SKY/WX    TMP DP  RH WIND       PRES   REMARKS
BILLINGS       PTCLDY    53  49  86 S5        30.21F
GREAT FALLS    CLEAR     50  46  86 SE3       30.17F
REGINA         PTCLDY    50  46  87 E2        30.11S
ESTEVAN        FOG      N/A N/A N/A NW3       30.09  VSB 3/8
$$




USA.gov is the U.S. government's official web portal to all federal, state and local government web resources and services.